AirNav   Phillips 66 Aviation Fuel
 
 778 users online  

16W Little Goose Lock and Dam Airport
Starbuck, Washington, USA

GOING TO STARBUCK?


FAA INFORMATION EFFECTIVE 26 APRIL 2018

Location

FAA Identifier: 16W
Lat/Long: 46-35-02.2000N / 118-00-12.9000W
46-35.036667N / 118-00.215000W
46.5839444 / -118.0035833
(estimated)
Elevation: 681 ft. / 207.6 m (surveyed)
Variation: 19E (1985)
From city: 7 miles NE of STARBUCK, WA
Time zone: UTC -7 (UTC -8 during Standard Time)
Zip code: 99136

Airport Operations

Airport use: Open to the public
Activation date: 02/1966
Control tower: no
ARTCC: SEATTLE CENTER
FSS: SEATTLE FLIGHT SERVICE STATION
NOTAMs facility: SEA (NOTAM-D service available)
Attendance: UNATNDD
Wind indicator: yes
Segmented circle: no

Airport Communications

CTAF: 122.9

Nearby radio navigation aids

VOR radial/distance  VOR name  Freq  Var
ALWr002/32.1WALLA WALLA VOR/DME116.4020E
PUWr240/32.6PULLMAN VOR/DME109.0020E

Airport Services

Parking: tiedowns
Airframe service: NONE
Powerplant service: NONE
Bottled oxygen: NONE
Bulk oxygen: NONE

Runway Information

Runway 7/25

Dimensions: 3400 x 50 ft. / 1036 x 15 m
Surface: gravel, in poor condition
PORTIONS OF RY SFC ROUGH AND SOFT.
GRVL DOESN'T COMPACT WELL.
RUNWAY 7  RUNWAY 25
Latitude: 46-35.038952N46-35.032942N
Longitude: 118-00.620458W117-59.809028W
Traffic pattern: leftleft
Runway heading: 072 magnetic, 091 true252 magnetic, 271 true
Obstructions: 12 ft. road, 25 ft. from runway, 2:1 slope to clear262 ft. hill, 4200 ft. from runway, 420 ft. left of centerline, 16:1 slope to clear

Airport Ownership and Management from official FAA records

Ownership: Publicly-owned
Owner: WSDOT AVIATION DIVISION
7702 TERMINAL STREET SW
TUMWATER, WA 98501-7264
Phone 800-552-0666
800 NUMBER FOR WA STATE CALLS ONLY.
Manager: G. PAUL WOLF
7702 TERMINAL STREET SW
TUMWATER, WA 98501-7264
Phone (360) 618-2477

Airport Operational Statistics

Aircraft operations: avg 25/month *
100% transient general aviation
* for 12-month period ending 31 December 2015

Additional Remarks

ARPT LCTD IN CANYON; ROLLING TERRAIN 700-800' SOUTH RISING TO 750'; CANYON WALL 800' SOUTH RISES STEEPLY TO 1800+'; NORTH WALL RISES TO 1600+'.
RY MARKED WITH REFLECTORS DURING DATES ARPT IS OPEN.
FOR ACFT ACCIDENTS/INCIDENTS CTC WA STATE EMERGENCY OPERATIONS CENTER 800-258-5990.
CTC WA STATE AVIATION DIVISION 360-709-8015 OR 1-800-552-0666 WA AREA FOR FACILITY INFO PRIOR TO USE.
PEDESTRIANS, VEHICLES, AND ANIMALS ON & INVOF RY.
DENSITY ALTITUDE.
HIGH TERRAIN SURROUNDS ARPT.
STRONG WNDS POSSIBLE INSIDE CANYON.
DO NOT LAND IF SNOW PRESENT ON RY. NO WINTER SNOW REMOVAL OPS.

Instrument Procedures

There are no published instrument procedures at 16W.

Some nearby airports with instrument procedures:

KALW - Walla Walla Regional Airport (32 nm S)
KPUW - Pullman/Moscow Regional Airport (38 nm E)
KLWS - Lewiston-Nez Perce County Airport (43 nm E)
KPSC - Tri-Cities Airport (50 nm W)
KRLD - Richland Airport (56 nm W)
 
Loc | Ops | Rwys | IFR | FBO | Links
Com | Nav | Svcs | Stats | Notes

AirNav Hotels Sweepstakes
 
Area around 16W (Little Goose Lock and Dam Airport)
 
Road maps at: MapQuest Bing Google
 
Aerial photo
WARNING: Photo may not be current or correct
Aerial photo of 16W (Little Goose Lock and Dam Airport)
Photo by David Wyatt
Photo taken 15-Jul-2007

Do you have a better or more recent aerial photo of Little Goose Lock and Dam Airport that you would like to share? If so, please send us your photo.

 
Sectional chart

 
Airport distance calculator
Flying to Little Goose Lock and Dam Airport? Find the distance to fly.

From to 16W

Sunrise and sunset
Times for 26-Apr-2018
 Local
(UTC-7)
 Zulu
(UTC)
Morning civil twilight05:1312:13
Sunrise05:4612:46
Sunset19:5302:53
Evening civil twilight20:2603:26

Current date and time
Zulu (UTC)  27-Apr-2018 03:17:28
Local (UTC-7)  26-Apr-2018 20:17:28
 
METAR
KALW 
31nm S 
270253Z AUTO 09003KT 10SM CLR 22/10 A2989 RMK AO2 SLP120 T02220100 56018
KPUW 
38nm E 
270253Z AUTO 00000KT 10SM CLR 19/02 A3000 RMK AO2 SLP151 T01890017 56015
KLWS 
43nm E 
270256Z 00000KT 10SM CLR 24/04 A2993 RMK AO2 SLP129 T02390039 56014
KPSC 
50nm W 
270253Z 35004KT 10SM CLR 19/11 A2988 RMK AO2 SLP119 T01940111 56018
TAF
KALW 
31nm S 
261737Z 2618/2718 33007KT P6SM SKC FM270400 12006KT P6SM SKC FM271200 12007KT P6SM SCT200 FM271700 VRB05KT P6SM BKN180
KPUW 
38nm E 
261725Z 2618/2718 10008KT P6SM SKC FM262200 VRB04KT P6SM SKC FM271200 10010KT P6SM SKC
NOTAMs
Click for the latest NOTAMs
NOTAMs are issued by the DoD/FAA and will open in a separate window not controlled by AirNav.

 

 
 

Would you like to see your business listed on this page?

 If your business provides an interesting product or service to pilots, flight crews, aircraft, or users of the Little Goose Lock and Dam Airport, you should consider listing it here.  To start the listing process, click on the button below
 
Add a business
 

Other Pages about Little Goose Lock and Dam Airport

www.wsdot.wa.gov/...
 
Update a link
 
Copyright © AirNav, LLC. All rights reserved. Privacy Policy  Contact